Index of /TBL/HowTo/Pharmacokinetics_Build/lecture01

[ICO]NameLast modifiedSizeDescription

[PARENTDIR]Parent Directory  -  
[VID]body_disease_pharmacokinetics01-13.mp42018-12-24 19:02 4.5M 
[VID]body_disease_pharmacokinetics01-18.mp42018-12-24 19:02 2.6M 
[TXT]index.html.hide2018-12-24 19:02 4.0K 
[VID]body_disease_pharmacokinetics01-3.mp42018-12-24 19:02 3.1M 
[VID]body_disease_pharmacokinetics01-9.mp42018-12-24 19:02 2.9M 
[   ]swfobject.js2018-12-24 19:02 9.5K 
[VID]body_disease_pharmacokinetics01-7.mp42018-12-24 19:02 2.9M 
[VID]body_disease_pharmacokinetics01-14.mp42018-12-24 19:02 1.6M 
[VID]body_disease_pharmacokinetics01-21.mp42018-12-24 19:02 4.4M 
[VID]body_disease_pharmacokinetics01-0.mp42018-12-24 19:02 302K 
[VID]body_disease_pharmacokinetics01-4.mp42018-12-24 19:02 15M 
[VID]body_disease_pharmacokinetics01-17.mp42018-12-24 19:02 2.3M 
[VID]body_disease_pharmacokinetics01-8.mp42018-12-24 19:02 5.9M 
[   ]body_disease_pharmacokinetics01.js2018-12-24 19:02 541  
[VID]body_disease_pharmacokinetics01-22.mp42018-12-24 19:02 25M 
[   ]body_disease_pharmacokinetics01_config.xml2018-12-24 19:02 32K 
[VID]body_disease_pharmacokinetics01-1.mp42018-12-24 19:02 1.7M 
[VID]body_disease_pharmacokinetics01-6.mp42018-12-24 19:02 6.8M 
[VID]body_disease_pharmacokinetics01-10.mp42018-12-24 19:02 3.7M 
[VID]body_disease_pharmacokinetics01-15.mp42018-12-24 19:02 4.4M 
[VID]body_disease_pharmacokinetics01-16.mp42018-12-24 19:02 2.8M 
[VID]body_disease_pharmacokinetics01-23.mp42018-12-24 19:02 18M 
[VID]body_disease_pharmacokinetics01-12.mp42018-12-24 19:02 5.0M 
[VID]body_disease_pharmacokinetics01-19.mp42018-12-24 19:02 1.6M 
[VID]body_disease_pharmacokinetics01-20.mp42018-12-24 19:02 4.1M 
[IMG]body_disease_pharmacokinetics01_nofp_bg.gif2018-12-24 19:02 13K 
[VID]body_disease_pharmacokinetics01-2.mp42018-12-24 19:02 5.9M 
[VID]body_disease_pharmacokinetics01-5.mp42018-12-24 19:02 5.4M 
[VID]body_disease_pharmacokinetics01-11.mp42018-12-24 19:03 13M 
[   ]body_disease_pharmacokinetics01.smil2018-12-24 19:03 3.4K 
[   ]body_disease_pharmacokinetics01_controller.swf2018-12-24 19:03 196K 
[DIR]Project_files/2019-01-05 12:55 -  
[TXT]index5.html.internet2019-01-14 09:52 13K 
[   ]lecture012019-01-14 09:53 13K 
[TXT]index5.html2019-01-14 12:33 13K 
[TXT]index5.html.txt2019-01-14 12:35 13K